Time,TemperatureF,DewpointF,PressureIn,WindDirection,WindDirectionDegrees,WindSpeedMPH,WindSpeedGustMPH,Humidity,HourlyPrecipIn,Conditions,Clouds,dailyrainin,SolarRadiationWatts/m^2,SoftwareType,DateUTC
2013-07-28 00:02:00,74.7,73.8,29.93,SSW,199,0.0,1.0,97,0.00,,,0.00,0.0,meteohub,2013-07-28 04:02:00,
2013-07-28 00:06:00,74.5,73.6,29.93,SSW,199,1.0,1.0,97,0.00,,,0.00,0.0,meteohub,2013-07-28 04:06:00,
2013-07-28 00:09:00,74.5,73.6,29.93,SSW,199,0.0,1.0,97,0.00,,,0.00,0.0,meteohub,2013-07-28 04:09:00,
2013-07-28 00:12:00,74.5,73.6,29.92,SSW,199,0.0,1.0,97,0.00,,,0.00,0.0,meteohub,2013-07-28 04:12:00,
2013-07-28 00:18:00,74.3,73.4,29.93,SSW,199,0.0,2.0,97,0.00,,,0.00,0.0,meteohub,2013-07-28 04:18:00,
2013-07-28 00:24:00,74.3,73.4,29.93,SSW,199,0.0,2.0,97,0.00,,,0.00,0.0,meteohub,2013-07-28 04:24:00,
2013-07-28 00:31:00,74.1,73.2,29.92,SSW,199,0.0,2.0,97,0.00,,,0.00,0.0,meteohub,2013-07-28 04:31:00,
2013-07-28 00:37:00,74.1,73.2,29.92,SSW,198,1.0,1.0,97,0.00,,,0.00,0.0,meteohub,2013-07-28 04:37:00,
2013-07-28 00:42:00,73.9,73.0,29.93,SSW,198,0.0,1.0,97,0.00,,,0.00,0.0,meteohub,2013-07-28 04:42:00,
2013-07-28 00:47:00,73.9,73.0,29.93,SSW,198,0.0,1.0,97,0.00,,,0.00,0.0,meteohub,2013-07-28 04:47:00,
2013-07-28 00:52:00,73.9,73.0,29.92,SSW,198,0.0,1.0,97,0.00,,,0.00,0.0,meteohub,2013-07-28 04:52:00,
2013-07-28 00:59:00,73.9,73.0,29.92,SSW,198,0.0,1.0,97,0.00,,,0.00,0.0,meteohub,2013-07-28 04:59:00,
2013-07-28 01:05:00,73.9,73.0,29.92,SSW,198,0.0,1.0,97,0.00,,,0.00,0.0,meteohub,2013-07-28 05:05:00,
2013-07-28 01:11:00,73.9,73.0,29.93,SSW,198,0.0,1.0,97,0.00,,,0.00,0.0,meteohub,2013-07-28 05:11:00,
2013-07-28 01:17:00,73.9,73.0,29.92,SSW,198,0.0,0.0,97,0.00,,,0.00,0.0,meteohub,2013-07-28 05:17:00,
2013-07-28 01:22:00,73.9,73.0,29.92,SSW,198,0.0,0.0,97,0.00,,,0.00,0.0,meteohub,2013-07-28 05:22:00,
2013-07-28 01:27:00,73.9,73.0,29.92,SSW,198,0.0,0.0,97,0.00,,,0.00,0.0,meteohub,2013-07-28 05:27:00,
2013-07-28 01:33:00,73.9,73.0,29.92,SSW,198,1.0,1.0,97,0.00,,,0.00,0.0,meteohub,2013-07-28 05:33:00,
2013-07-28 01:39:00,73.9,73.0,29.92,SSW,198,0.0,1.0,97,0.00,,,0.00,0.0,meteohub,2013-07-28 05:39:00,
2013-07-28 01:46:00,73.8,72.9,29.92,SSW,198,0.0,1.0,97,0.00,,,0.00,0.0,meteohub,2013-07-28 05:46:00,
2013-07-28 01:52:00,73.8,72.9,29.92,SSW,198,0.0,1.0,97,0.00,,,0.00,0.0,meteohub,2013-07-28 05:52:00,
2013-07-28 01:57:00,73.8,72.9,29.92,SSW,198,0.0,1.0,97,0.00,,,0.00,0.0,meteohub,2013-07-28 05:57:00,
2013-07-28 02:02:00,73.8,72.9,29.92,SSW,198,0.0,1.0,97,0.00,,,0.00,0.0,meteohub,2013-07-28 06:02:00,
2013-07-28 02:07:00,73.8,72.9,29.91,SSW,198,0.0,1.0,97,0.00,,,0.00,0.0,meteohub,2013-07-28 06:07:00,
2013-07-28 02:12:00,73.8,73.2,29.91,SSW,198,0.0,1.0,98,0.00,,,0.00,0.0,meteohub,2013-07-28 06:12:00,
2013-07-28 02:17:00,73.8,73.2,29.91,SSW,198,0.0,1.0,98,0.00,,,0.00,0.0,meteohub,2013-07-28 06:17:00,
2013-07-28 02:23:00,73.8,73.2,29.91,SSW,198,0.0,1.0,98,0.00,,,0.00,0.0,meteohub,2013-07-28 06:23:00,
2013-07-28 02:30:00,73.6,72.7,29.92,SSW,198,0.0,1.0,97,0.00,,,0.00,0.0,meteohub,2013-07-28 06:30:00,
2013-07-28 02:36:00,73.6,72.7,29.92,SSW,198,0.0,1.0,97,0.00,,,0.00,0.0,meteohub,2013-07-28 06:36:00,
2013-07-28 02:42:00,73.4,72.5,29.92,SSW,198,0.0,1.0,97,0.00,,,0.00,0.0,meteohub,2013-07-28 06:42:00,
2013-07-28 02:47:00,73.4,72.5,29.92,SSW,198,0.0,1.0,97,0.00,,,0.00,0.0,meteohub,2013-07-28 06:47:00,
2013-07-28 02:54:00,73.2,72.7,29.92,SSW,198,0.0,0.0,98,0.00,,,0.00,0.0,meteohub,2013-07-28 06:54:00,
2013-07-28 03:01:00,73.2,72.7,29.92,SSW,198,0.0,0.0,98,0.00,,,0.00,0.0,meteohub,2013-07-28 07:01:00,
2013-07-28 03:07:00,73.2,72.7,29.91,SSW,198,0.0,0.0,98,0.00,,,0.00,0.0,meteohub,2013-07-28 07:07:00,
2013-07-28 03:13:00,73.2,72.7,29.92,SSW,198,0.0,0.0,98,0.00,,,0.00,0.0,meteohub,2013-07-28 07:13:00,
2013-07-28 03:19:00,73.2,72.7,29.92,SSW,198,0.0,0.0,98,0.00,,,0.00,0.0,meteohub,2013-07-28 07:19:00,
2013-07-28 03:26:00,73.2,72.7,29.92,SSW,198,0.0,0.0,98,0.00,,,0.00,0.0,meteohub,2013-07-28 07:26:00,
2013-07-28 03:32:00,73.2,72.7,29.92,SSW,198,0.0,0.0,98,0.00,,,0.00,0.0,meteohub,2013-07-28 07:32:00,
2013-07-28 03:37:00,73.2,72.7,29.92,SSW,198,0.0,0.0,98,0.00,,,0.00,0.0,meteohub,2013-07-28 07:37:00,
2013-07-28 03:44:00,73.0,72.5,29.92,SSW,198,0.0,0.0,98,0.00,,,0.00,0.0,meteohub,2013-07-28 07:44:00,
2013-07-28 03:51:00,73.0,72.5,29.92,SSW,198,0.0,0.0,98,0.00,,,0.00,0.0,meteohub,2013-07-28 07:51:00,
2013-07-28 03:57:00,73.0,72.5,29.92,SSW,198,0.0,0.0,98,0.00,,,0.00,0.0,meteohub,2013-07-28 07:57:00,
2013-07-28 04:02:00,73.0,72.5,29.92,SSW,198,0.0,0.0,98,0.00,,,0.00,0.0,meteohub,2013-07-28 08:02:00,
2013-07-28 04:07:00,73.0,72.5,29.92,SSW,198,0.0,0.0,98,0.00,,,0.00,0.0,meteohub,2013-07-28 08:07:00,
2013-07-28 04:12:00,73.0,72.5,29.92,SSW,198,0.0,0.0,98,0.00,,,0.00,0.0,meteohub,2013-07-28 08:12:00,
2013-07-28 04:19:00,73.0,72.5,29.91,SSW,198,0.0,0.0,98,0.00,,,0.00,0.0,meteohub,2013-07-28 08:19:00,
2013-07-28 04:25:00,73.0,72.5,29.91,SSW,198,0.0,0.0,98,0.00,,,0.00,0.0,meteohub,2013-07-28 08:25:00,
2013-07-28 04:31:00,73.0,72.5,29.92,SSW,198,0.0,0.0,98,0.00,,,0.00,0.0,meteohub,2013-07-28 08:31:00,
2013-07-28 04:37:00,73.0,72.5,29.92,SSW,198,0.0,0.0,98,0.00,,,0.00,0.0,meteohub,2013-07-28 08:37:00,
2013-07-28 04:42:00,72.9,72.3,29.92,SSW,198,0.0,0.0,98,0.00,,,0.00,0.0,meteohub,2013-07-28 08:42:00,
2013-07-28 04:47:00,72.9,72.3,29.92,SSW,198,0.0,0.0,98,0.00,,,0.00,0.0,meteohub,2013-07-28 08:47:00,
2013-07-28 04:53:00,72.9,72.3,29.92,SSW,198,0.0,0.0,98,0.00,,,0.00,0.0,meteohub,2013-07-28 08:53:00,
2013-07-28 04:59:00,72.9,72.3,29.92,SSW,198,0.0,0.0,98,0.00,,,0.00,0.0,meteohub,2013-07-28 08:59:00,
2013-07-28 05:06:00,72.9,72.3,29.92,SSW,198,0.0,0.0,98,0.00,,,0.00,0.0,meteohub,2013-07-28 09:06:00,
2013-07-28 05:12:00,72.9,72.3,29.93,SSW,198,0.0,0.0,98,0.00,,,0.00,0.0,meteohub,2013-07-28 09:12:00,
2013-07-28 05:18:00,72.9,72.3,29.93,SSW,198,0.0,0.0,98,0.00,,,0.00,0.0,meteohub,2013-07-28 09:18:00,
2013-07-28 05:24:00,72.9,72.3,29.93,SSW,198,0.0,0.0,98,0.00,,,0.00,0.0,meteohub,2013-07-28 09:24:00,
2013-07-28 05:31:00,72.9,72.3,29.93,SSW,198,0.0,0.0,98,0.00,,,0.00,0.0,meteohub,2013-07-28 09:31:00,
2013-07-28 05:37:00,72.9,72.3,29.93,SSW,198,0.0,0.0,98,0.00,,,0.00,0.0,meteohub,2013-07-28 09:37:00,
2013-07-28 05:42:00,72.9,72.3,29.93,SSW,198,0.0,0.0,98,0.00,,,0.00,0.0,meteohub,2013-07-28 09:42:00,
2013-07-28 05:47:00,72.9,72.3,29.93,SSW,198,0.0,0.0,98,0.00,,,0.00,0.0,meteohub,2013-07-28 09:47:00,
2013-07-28 05:52:00,72.9,72.3,29.93,SSW,198,0.0,0.0,98,0.00,,,0.00,0.0,meteohub,2013-07-28 09:52:00,
2013-07-28 05:59:00,72.9,72.3,29.93,SSW,198,0.0,0.0,98,0.00,,,0.00,0.0,meteohub,2013-07-28 09:59:00,
2013-07-28 06:05:00,72.9,72.3,29.93,SSW,198,0.0,0.0,98,0.00,,,0.00,0.0,meteohub,2013-07-28 10:05:00,
2013-07-28 06:11:00,72.9,72.3,29.93,SSW,198,0.0,0.0,98,0.00,,,0.00,0.0,meteohub,2013-07-28 10:11:00,
2013-07-28 06:17:00,72.9,72.3,29.93,SSW,198,0.0,0.0,98,0.00,,,0.00,0.0,meteohub,2013-07-28 10:17:00,
2013-07-28 06:22:00,72.9,72.3,29.93,SSW,198,0.0,0.0,98,0.00,,,0.00,0.0,meteohub,2013-07-28 10:22:00,
2013-07-28 06:27:00,72.9,72.3,29.93,SSW,198,0.0,0.0,98,0.00,,,0.00,0.0,meteohub,2013-07-28 10:27:00,
2013-07-28 06:33:00,72.9,72.3,29.93,ESE,116,0.0,0.0,98,0.00,,,0.00,0.0,meteohub,2013-07-28 10:33:00,
2013-07-28 06:39:00,72.9,72.3,29.94,ESE,116,0.0,0.0,98,0.00,,,0.00,0.0,meteohub,2013-07-28 10:39:00,
2013-07-28 06:45:00,72.9,72.3,29.94,ESE,116,0.0,1.0,98,0.00,,,0.00,0.0,meteohub,2013-07-28 10:45:00,
2013-07-28 06:52:00,72.9,72.3,29.94,ESE,116,0.0,1.0,98,0.00,,,0.00,0.0,meteohub,2013-07-28 10:52:00,
2013-07-28 06:57:00,73.0,72.5,29.94,ESE,116,0.0,1.0,98,0.00,,,0.00,5.0,meteohub,2013-07-28 10:57:00,
2013-07-28 07:04:00,73.0,72.5,29.94,ESE,116,0.0,1.0,98,0.00,,,0.00,9.0,meteohub,2013-07-28 11:04:00,
2013-07-28 07:10:00,73.0,72.5,29.94,ESE,116,0.0,1.0,98,0.00,,,0.00,16.0,meteohub,2013-07-28 11:10:00,
2013-07-28 07:16:00,73.0,72.5,29.94,ESE,116,0.0,1.0,98,0.00,,,0.00,25.0,meteohub,2013-07-28 11:16:00,
2013-07-28 07:22:00,73.2,72.7,29.94,ESE,116,0.0,0.0,98,0.00,,,0.00,30.0,meteohub,2013-07-28 11:22:00,
2013-07-28 07:27:00,73.2,72.7,29.94,ESE,116,0.0,0.0,98,0.00,,,0.00,32.0,meteohub,2013-07-28 11:27:00,
2013-07-28 07:32:00,73.6,73.0,29.95,ESE,116,0.0,0.0,98,0.00,,,0.00,35.0,meteohub,2013-07-28 11:32:00,
2013-07-28 07:37:00,73.6,73.0,29.95,ESE,116,0.0,0.0,98,0.00,,,0.00,42.0,meteohub,2013-07-28 11:37:00,
2013-07-28 07:44:00,73.8,73.2,29.96,SW,225,0.0,0.0,98,0.00,,,0.00,47.0,meteohub,2013-07-28 11:44:00,
2013-07-28 07:50:00,73.8,73.2,29.96,SW,225,0.0,0.0,98,0.00,,,0.00,47.0,meteohub,2013-07-28 11:50:00,
2013-07-28 07:57:00,73.9,73.4,29.96,SW,225,0.0,0.0,98,0.00,,,0.00,46.0,meteohub,2013-07-28 11:57:00,
2013-07-28 08:02:00,73.9,73.0,29.96,SW,225,0.0,1.0,97,0.00,,,0.00,47.0,meteohub,2013-07-28 12:02:00,
2013-07-28 08:07:00,73.9,73.0,29.96,SW,229,0.0,1.0,97,0.00,,,0.00,51.0,meteohub,2013-07-28 12:07:00,
2013-07-28 08:12:00,74.1,73.2,29.96,SW,229,0.0,1.0,97,0.00,,,0.00,58.0,meteohub,2013-07-28 12:12:00,
2013-07-28 08:19:00,74.1,73.2,29.96,SW,229,0.0,1.0,97,0.00,,,0.00,70.0,meteohub,2013-07-28 12:19:00,
2013-07-28 08:25:00,74.5,73.6,29.96,SW,229,0.0,1.0,97,0.00,,,0.00,81.0,meteohub,2013-07-28 12:25:00,
2013-07-28 08:32:00,74.5,73.6,29.97,SW,235,0.0,1.0,97,0.00,,,0.00,91.0,meteohub,2013-07-28 12:32:00,
2013-07-28 08:37:00,74.7,73.8,29.97,SW,235,0.0,1.0,97,0.00,,,0.00,95.0,meteohub,2013-07-28 12:37:00,
2013-07-28 08:42:00,74.8,73.9,29.97,SW,235,0.0,1.0,97,0.00,,,0.00,102.0,meteohub,2013-07-28 12:42:00,
2013-07-28 08:47:00,75.0,74.1,29.97,SW,235,0.0,1.0,97,0.00,,,0.00,113.0,meteohub,2013-07-28 12:47:00,
2013-07-28 08:53:00,75.2,73.9,29.98,SW,235,1.0,1.0,96,0.00,,,0.00,118.0,meteohub,2013-07-28 12:53:00,
2013-07-28 08:59:00,75.6,74.3,29.98,WSW,258,1.0,2.0,96,0.00,,,0.00,121.0,meteohub,2013-07-28 12:59:00,
2013-07-28 09:05:00,76.1,74.8,29.98,West,262,1.0,2.0,96,0.00,,,0.00,127.0,meteohub,2013-07-28 13:05:00,
2013-07-28 09:12:00,76.5,75.2,29.99,West,267,2.0,2.0,96,0.00,,,0.00,127.0,meteohub,2013-07-28 13:12:00,
2013-07-28 09:17:00,76.5,75.2,29.99,SW,225,1.0,2.0,96,0.00,,,0.00,127.0,meteohub,2013-07-28 13:17:00,
2013-07-28 09:22:00,76.6,75.0,29.99,SW,233,0.0,2.0,95,0.00,,,0.00,134.0,meteohub,2013-07-28 13:22:00,
2013-07-28 09:27:00,76.8,75.2,29.98,SW,233,0.0,2.0,95,0.00,,,0.00,139.0,meteohub,2013-07-28 13:27:00,
2013-07-28 09:34:00,77.4,75.6,29.98,SW,236,2.0,2.0,94,0.00,,,0.00,153.0,meteohub,2013-07-28 13:34:00,
2013-07-28 09:40:00,77.5,75.4,29.98,SW,236,0.0,2.0,93,0.00,,,0.00,160.0,meteohub,2013-07-28 13:40:00,
2013-07-28 09:46:00,77.7,75.2,29.99,SW,228,0.0,3.0,92,0.00,,,0.00,172.0,meteohub,2013-07-28 13:46:00,
2013-07-28 09:52:00,78.1,75.6,29.99,SW,234,3.0,3.0,92,0.00,,,0.00,181.0,meteohub,2013-07-28 13:52:00,
2013-07-28 09:57:00,78.1,74.5,29.99,West,259,0.0,3.0,89,0.00,,,0.00,186.0,meteohub,2013-07-28 13:57:00,
2013-07-28 10:02:00,78.3,75.0,29.99,SSW,199,1.0,3.0,90,0.00,,,0.00,172.0,meteohub,2013-07-28 14:02:00,
2013-07-28 10:08:00,78.4,74.7,29.99,WSW,248,3.0,3.0,88,0.00,,,0.00,183.0,meteohub,2013-07-28 14:08:00,
2013-07-28 10:14:00,78.3,73.0,29.99,West,269,0.0,6.0,84,0.00,,,0.00,174.0,meteohub,2013-07-28 14:14:00,
2013-07-28 10:20:00,77.9,72.3,29.99,SW,222,3.0,6.0,83,0.00,,,0.00,183.0,meteohub,2013-07-28 14:20:00,
2013-07-28 10:27:00,77.5,72.0,29.99,WSW,241,1.0,6.0,83,0.00,,,0.00,207.0,meteohub,2013-07-28 14:27:00,
2013-07-28 10:32:00,77.4,71.4,29.99,SW,232,4.0,6.0,82,0.00,,,0.00,232.0,meteohub,2013-07-28 14:32:00,
2013-07-28 10:37:00,77.5,72.3,29.99,WSW,238,2.0,6.0,84,0.00,,,0.00,290.0,meteohub,2013-07-28 14:37:00,
2013-07-28 10:42:00,77.9,73.0,29.99,West,279,1.0,6.0,85,0.00,,,0.00,267.0,meteohub,2013-07-28 14:42:00,
2013-07-28 10:49:00,78.3,72.0,29.99,West,263,0.0,6.0,81,0.00,,,0.00,272.0,meteohub,2013-07-28 14:49:00,
2013-07-28 10:55:00,78.6,71.6,29.99,WSW,248,2.0,6.0,79,0.00,,,0.00,320.0,meteohub,2013-07-28 14:55:00,
2013-07-28 11:01:00,79.2,72.5,29.99,WSW,245,1.0,5.0,80,0.00,,,0.00,387.0,meteohub,2013-07-28 15:01:00,
2013-07-28 11:07:00,79.9,72.9,29.99,SW,217,1.0,5.0,79,0.00,,,0.00,446.0,meteohub,2013-07-28 15:07:00,
2013-07-28 11:13:00,80.2,72.0,29.99,East,92,0.0,5.0,76,0.00,,,0.00,654.0,meteohub,2013-07-28 15:13:00,
2013-07-28 11:20:00,81.1,71.2,29.99,West,263,0.0,5.0,72,0.00,,,0.00,489.0,meteohub,2013-07-28 15:20:00,
2013-07-28 11:26:00,81.7,71.8,29.98,NE,41,1.0,5.0,72,0.00,,,0.00,494.0,meteohub,2013-07-28 15:26:00,
2013-07-28 11:32:00,82.0,71.8,29.98,NNE,23,1.0,5.0,71,0.00,,,0.00,417.0,meteohub,2013-07-28 15:32:00,
2013-07-28 11:37:00,82.0,72.1,29.98,NNE,17,1.0,5.0,72,0.00,,,0.00,396.0,meteohub,2013-07-28 15:37:00,
2013-07-28 11:42:00,82.0,71.2,29.98,NNW,338,1.0,5.0,70,0.00,,,0.00,373.0,meteohub,2013-07-28 15:42:00,
2013-07-28 11:48:00,82.0,71.2,29.99,NE,39,0.0,2.0,70,0.00,,,0.00,369.0,meteohub,2013-07-28 15:48:00,
2013-07-28 11:54:00,82.2,72.3,29.99,NE,40,0.0,2.0,72,0.00,,,0.00,350.0,meteohub,2013-07-28 15:54:00,
2013-07-28 12:00:00,82.0,72.1,29.99,WSW,250,1.0,2.0,72,0.00,,,0.00,330.0,meteohub,2013-07-28 16:00:00,
2013-07-28 12:07:00,82.0,72.1,29.99,WSW,250,0.0,2.0,72,0.00,,,0.00,332.0,meteohub,2013-07-28 16:07:00,
2013-07-28 12:12:00,82.0,71.8,29.99,WSW,250,0.0,2.0,71,0.00,,,0.00,383.0,meteohub,2013-07-28 16:12:00,
2013-07-28 12:17:00,82.4,71.2,29.99,ENE,70,1.0,2.0,69,0.00,,,0.00,422.0,meteohub,2013-07-28 16:17:00,
2013-07-28 12:22:00,82.8,72.0,29.99,ENE,78,2.0,2.0,70,0.00,,,0.00,366.0,meteohub,2013-07-28 16:22:00,
2013-07-28 12:28:00,82.6,70.9,29.99,ENE,67,0.0,2.0,68,0.00,,,0.00,345.0,meteohub,2013-07-28 16:28:00,
2013-07-28 12:35:00,82.8,72.0,29.99,ENE,67,0.0,2.0,70,0.00,,,0.00,388.0,meteohub,2013-07-28 16:35:00,
2013-07-28 12:41:00,82.8,73.2,29.99,ENE,67,0.0,2.0,73,0.00,,,0.00,420.0,meteohub,2013-07-28 16:41:00,
2013-07-28 12:47:00,82.9,72.5,29.98,NE,42,3.0,3.0,71,0.00,,,0.00,427.0,meteohub,2013-07-28 16:47:00,
2013-07-28 12:53:00,83.1,73.9,29.98,NE,40,0.0,3.0,74,0.00,,,0.00,541.0,meteohub,2013-07-28 16:53:00,
2013-07-28 13:00:00,83.7,74.1,29.98,ENE,67,1.0,3.0,73,0.00,,,0.00,631.0,meteohub,2013-07-28 17:00:00,
2013-07-28 13:06:00,83.8,73.0,29.98,NNE,31,2.0,3.0,70,0.00,,,0.00,816.0,meteohub,2013-07-28 17:06:00,
2013-07-28 13:12:00,84.0,72.7,29.98,North,11,1.0,3.0,69,0.00,,,0.00,761.0,meteohub,2013-07-28 17:12:00,
2013-07-28 13:17:00,84.0,72.3,29.98,ENE,65,0.0,3.0,68,0.00,,,0.00,693.0,meteohub,2013-07-28 17:17:00,
2013-07-28 13:22:00,84.6,74.1,29.98,North,11,0.0,3.0,71,0.00,,,0.00,1062.0,meteohub,2013-07-28 17:22:00,
2013-07-28 13:27:00,85.3,74.8,29.98,SSE,151,2.0,3.0,71,0.00,,,0.00,1062.0,meteohub,2013-07-28 17:27:00,
2013-07-28 13:32:00,86.0,73.8,29.98,SSE,161,1.0,3.0,67,0.00,,,0.00,1034.0,meteohub,2013-07-28 17:32:00,
2013-07-28 13:38:00,86.7,74.5,29.98,NNE,32,1.0,3.0,67,0.00,,,0.00,867.0,meteohub,2013-07-28 17:38:00,
2013-07-28 13:44:00,86.5,72.9,29.98,ENE,71,0.0,3.0,64,0.00,,,0.00,1028.0,meteohub,2013-07-28 17:44:00,
2013-07-28 13:50:00,87.3,74.5,29.98,SE,140,3.0,3.0,66,0.00,,,0.00,1058.0,meteohub,2013-07-28 17:50:00,
2013-07-28 13:56:00,87.1,72.9,29.98,NE,51,2.0,4.0,63,0.00,,,0.00,837.0,meteohub,2013-07-28 17:56:00,
2013-07-28 14:02:00,87.4,74.3,29.98,SSE,151,2.0,4.0,65,0.00,,,0.00,991.0,meteohub,2013-07-28 18:02:00,
2013-07-28 14:09:00,87.1,72.9,29.98,SSW,199,2.0,4.0,63,0.00,,,0.00,800.0,meteohub,2013-07-28 18:09:00,
2013-07-28 14:15:00,88.0,74.3,29.98,NNE,18,1.0,3.0,64,0.00,,,0.00,1063.0,meteohub,2013-07-28 18:15:00,
2013-07-28 14:21:00,88.2,74.5,29.98,ENE,63,2.0,3.0,64,0.00,,,0.00,740.0,meteohub,2013-07-28 18:21:00,
2013-07-28 14:27:00,88.0,74.3,29.98,NE,40,1.0,3.0,64,0.00,,,0.00,788.0,meteohub,2013-07-28 18:27:00,
2013-07-28 14:34:00,88.2,75.4,29.98,ESE,121,1.0,4.0,66,0.00,,,0.00,710.0,meteohub,2013-07-28 18:34:00,
2013-07-28 14:47:00,88.2,73.0,29.98,North,355,2.0,4.0,61,0.00,,,0.00,969.0,meteohub,2013-07-28 18:47:00,
2013-07-28 14:52:00,88.5,72.3,29.97,West,261,4.0,4.0,59,0.00,,,0.00,940.0,meteohub,2013-07-28 18:52:00,
2013-07-28 14:59:00,89.8,75.6,29.97,NNE,12,1.0,3.0,63,0.00,,,0.00,930.0,meteohub,2013-07-28 18:59:00,
2013-07-28 15:05:00,89.6,72.9,29.97,East,82,1.0,3.0,58,0.00,,,0.00,916.0,meteohub,2013-07-28 19:05:00,
2013-07-28 15:11:00,89.1,70.7,29.97,NE,44,1.0,3.0,55,0.00,,,0.00,896.0,meteohub,2013-07-28 19:11:00,
2013-07-28 15:17:00,90.0,72.1,29.97,NE,34,1.0,3.0,56,0.00,,,0.00,918.0,meteohub,2013-07-28 19:17:00,
2013-07-28 15:22:00,89.4,72.1,29.97,East,86,0.0,3.0,57,0.00,,,0.00,882.0,meteohub,2013-07-28 19:22:00,
2013-07-28 15:30:00,89.6,72.9,29.97,SE,146,1.0,3.0,58,0.00,,,0.00,874.0,meteohub,2013-07-28 19:30:00,
2013-07-28 15:37:00,90.1,70.7,29.97,South,182,1.0,3.0,53,0.00,,,0.00,914.0,meteohub,2013-07-28 19:37:00,
2013-07-28 15:42:00,89.6,74.3,29.96,East,84,0.0,3.0,61,0.00,,,0.00,891.0,meteohub,2013-07-28 19:42:00,
2013-07-28 15:47:00,89.8,71.4,29.96,West,263,0.0,3.0,55,0.00,,,0.00,301.0,meteohub,2013-07-28 19:47:00,
2013-07-28 15:52:00,89.2,75.0,29.96,West,263,0.0,4.0,63,0.00,,,0.00,315.0,meteohub,2013-07-28 19:52:00,
2013-07-28 15:58:00,89.1,70.7,29.95,West,262,0.0,4.0,55,0.00,,,0.00,272.0,meteohub,2013-07-28 19:58:00,
2013-07-28 16:04:00,88.3,72.7,29.95,ENE,60,2.0,4.0,60,0.00,,,0.00,209.0,meteohub,2013-07-28 20:04:00,
2013-07-28 16:10:00,88.2,73.4,29.95,NNE,27,0.0,4.0,62,0.00,,,0.00,265.0,meteohub,2013-07-28 20:10:00,
2013-07-28 16:16:00,88.7,73.0,29.95,ENE,57,0.0,3.0,60,0.00,,,0.00,341.0,meteohub,2013-07-28 20:16:00,
2013-07-28 16:22:00,88.5,73.8,29.95,NE,55,0.0,3.0,62,0.00,,,0.00,385.0,meteohub,2013-07-28 20:22:00,
2013-07-28 16:27:00,88.7,73.6,29.95,NNW,336,1.0,3.0,61,0.00,,,0.00,290.0,meteohub,2013-07-28 20:27:00,
2013-07-28 16:32:00,89.6,74.8,29.95,NE,44,1.0,3.0,62,0.00,,,0.00,824.0,meteohub,2013-07-28 20:32:00,
2013-07-28 16:38:00,90.0,74.7,29.95,ENE,69,2.0,3.0,61,0.00,,,0.00,772.0,meteohub,2013-07-28 20:38:00,
2013-07-28 16:44:00,90.5,76.1,29.94,East,79,0.0,3.0,63,0.00,,,0.00,779.0,meteohub,2013-07-28 20:44:00,
2013-07-28 16:51:00,89.4,74.7,29.95,SSE,153,3.0,4.0,62,0.00,,,0.00,209.0,meteohub,2013-07-28 20:51:00,
2013-07-28 16:57:00,87.4,74.3,29.95,East,86,1.0,4.0,65,0.00,,,0.00,167.0,meteohub,2013-07-28 20:57:00,
2013-07-28 17:02:00,86.7,74.8,29.96,SSE,152,1.0,4.0,68,0.00,,,0.00,186.0,meteohub,2013-07-28 21:02:00,
2013-07-28 17:07:00,86.7,74.8,29.96,WNW,298,0.0,4.0,68,0.00,,,0.00,197.0,meteohub,2013-07-28 21:07:00,
2013-07-28 17:12:00,87.3,75.0,29.96,ESE,115,1.0,4.0,67,0.00,,,0.00,715.0,meteohub,2013-07-28 21:12:00,
2013-07-28 17:18:00,88.0,75.2,29.95,SSE,148,0.0,4.0,66,0.00,,,0.00,663.0,meteohub,2013-07-28 21:18:00,
2013-07-28 17:25:00,88.3,74.7,29.95,SE,144,1.0,4.0,64,0.00,,,0.00,585.0,meteohub,2013-07-28 21:25:00,
2013-07-28 17:31:00,88.3,74.1,29.96,ESE,112,0.0,5.0,63,0.00,,,0.00,543.0,meteohub,2013-07-28 21:31:00,
2013-07-28 17:37:00,88.0,74.7,29.96,SSE,148,1.0,5.0,65,0.00,,,0.00,515.0,meteohub,2013-07-28 21:37:00,
2013-07-28 17:42:00,87.8,74.1,29.95,East,96,1.0,5.0,64,0.00,,,0.00,492.0,meteohub,2013-07-28 21:42:00,
2013-07-28 17:47:00,88.2,74.8,29.95,ENE,58,1.0,5.0,65,0.00,,,0.00,476.0,meteohub,2013-07-28 21:47:00,
2013-07-28 17:52:00,87.8,73.6,29.95,ENE,63,2.0,3.0,63,0.00,,,0.00,427.0,meteohub,2013-07-28 21:52:00,
2013-07-28 17:57:00,87.4,73.2,29.95,ENE,71,2.0,3.0,63,0.00,,,0.00,434.0,meteohub,2013-07-28 21:57:00,
2013-07-28 18:02:00,87.6,73.9,29.95,NE,38,1.0,3.0,64,0.00,,,0.00,424.0,meteohub,2013-07-28 22:02:00,
2013-07-28 18:07:00,87.3,74.1,29.96,South,188,0.0,3.0,65,0.00,,,0.00,255.0,meteohub,2013-07-28 22:07:00,
2013-07-28 18:12:00,87.3,74.5,29.96,ENE,65,1.0,3.0,66,0.00,,,0.00,134.0,meteohub,2013-07-28 22:12:00,
2013-07-28 18:17:00,87.4,74.7,29.96,SE,128,0.0,4.0,66,0.00,,,0.00,123.0,meteohub,2013-07-28 22:17:00,
2013-07-28 18:22:00,86.7,75.4,29.96,East,85,2.0,4.0,69,0.00,,,0.00,186.0,meteohub,2013-07-28 22:22:00,
2013-07-28 18:27:00,86.2,75.2,29.96,ENE,63,1.0,4.0,70,0.00,,,0.00,107.0,meteohub,2013-07-28 22:27:00,
2013-07-28 18:33:00,85.5,74.5,29.97,SSE,159,4.0,4.0,70,0.00,,,0.00,264.0,meteohub,2013-07-28 22:33:00,
2013-07-28 18:39:00,84.7,73.9,29.97,WSW,254,2.0,6.0,70,0.00,,,0.00,121.0,meteohub,2013-07-28 22:39:00,
2013-07-28 18:46:00,84.4,73.6,29.97,SE,140,1.0,6.0,70,0.00,,,0.00,132.0,meteohub,2013-07-28 22:46:00,
2013-07-28 18:52:00,84.0,73.2,29.97,South,171,1.0,6.0,70,0.00,,,0.00,128.0,meteohub,2013-07-28 22:52:00,
2013-07-28 18:57:00,83.8,73.4,29.97,NE,46,0.0,5.0,71,0.00,,,0.00,69.0,meteohub,2013-07-28 22:57:00,
2013-07-28 19:02:00,83.7,73.6,29.97,ENE,66,1.0,5.0,72,0.00,,,0.00,65.0,meteohub,2013-07-28 23:02:00,
2013-07-28 19:07:00,83.5,73.9,29.97,ENE,78,1.0,5.0,73,0.00,,,0.00,62.0,meteohub,2013-07-28 23:07:00,
2013-07-28 19:14:00,82.9,72.5,29.97,SE,145,0.0,5.0,71,0.00,,,0.00,56.0,meteohub,2013-07-28 23:14:00,
2013-07-28 19:20:00,82.8,72.9,29.97,SSE,168,0.0,3.0,72,0.00,,,0.00,51.0,meteohub,2013-07-28 23:20:00,
2013-07-28 19:26:00,82.6,72.7,29.98,SE,145,3.0,3.0,72,0.00,,,0.00,47.0,meteohub,2013-07-28 23:26:00,
2013-07-28 19:32:00,82.2,72.7,29.98,SE,134,1.0,3.0,73,0.00,,,0.00,44.0,meteohub,2013-07-28 23:32:00,
2013-07-28 19:38:00,82.0,73.8,29.98,SSE,157,0.0,6.0,76,0.00,,,0.00,40.0,meteohub,2013-07-28 23:38:00,
2013-07-28 19:45:00,81.9,73.9,29.99,ESE,110,0.0,6.0,77,0.00,,,0.00,35.0,meteohub,2013-07-28 23:45:00,
2013-07-28 19:51:00,81.3,73.8,29.99,ESE,110,0.0,6.0,78,0.00,,,0.00,28.0,meteohub,2013-07-28 23:51:00,
2013-07-28 19:57:00,81.1,73.9,29.99,SE,129,0.0,2.0,79,0.00,,,0.00,23.0,meteohub,2013-07-28 23:57:00,
2013-07-28 20:02:00,81.0,74.1,29.98,East,96,0.0,2.0,80,0.00,,,0.00,18.0,meteohub,2013-07-29 00:02:00,
2013-07-28 20:07:00,80.8,73.9,29.99,SSE,165,1.0,2.0,80,0.00,,,0.00,12.0,meteohub,2013-07-29 00:07:00,
2013-07-28 20:12:00,80.4,74.1,29.99,SSE,161,0.0,2.0,81,0.00,,,0.00,9.0,meteohub,2013-07-29 00:12:00,
2013-07-28 20:17:00,80.2,73.9,29.99,SE,129,0.0,3.0,81,0.00,,,0.00,5.0,meteohub,2013-07-29 00:17:00,
2013-07-28 20:22:00,80.1,74.5,29.99,ESE,108,0.0,3.0,83,0.00,,,0.00,0.0,meteohub,2013-07-29 00:22:00,
2013-07-28 20:27:00,79.5,73.9,30.00,South,169,0.0,3.0,83,0.00,,,0.00,0.0,meteohub,2013-07-29 00:27:00,
2013-07-28 20:32:00,79.3,73.4,30.00,SE,146,1.0,2.0,82,0.00,,,0.00,0.0,meteohub,2013-07-29 00:32:00,
2013-07-28 20:37:00,79.3,73.4,30.00,SE,138,0.0,2.0,82,0.00,,,0.00,0.0,meteohub,2013-07-29 00:37:00,
2013-07-28 20:44:00,79.0,73.4,30.00,SSE,162,1.0,2.0,83,0.00,,,0.00,0.0,meteohub,2013-07-29 00:44:00,
2013-07-28 20:50:00,78.6,73.4,30.00,SW,232,1.0,2.0,84,0.00,,,0.00,0.0,meteohub,2013-07-29 00:50:00,
2013-07-28 20:56:00,78.4,73.2,30.00,SE,144,0.0,3.0,84,0.00,,,0.00,0.0,meteohub,2013-07-29 00:56:00,
2013-07-28 21:02:00,78.3,73.4,30.00,SE,144,0.0,3.0,85,0.00,,,0.00,0.0,meteohub,2013-07-29 01:02:00,
2013-07-28 21:07:00,78.1,73.2,30.00,SE,126,0.0,3.0,85,0.00,,,0.00,0.0,meteohub,2013-07-29 01:07:00,
2013-07-28 21:12:00,77.7,72.9,30.01,South,187,0.0,3.0,85,0.00,,,0.00,0.0,meteohub,2013-07-29 01:12:00,
2013-07-28 21:17:00,77.5,73.0,30.01,South,187,0.0,2.0,86,0.00,,,0.00,0.0,meteohub,2013-07-29 01:17:00,
2013-07-28 21:22:00,77.5,73.0,30.01,South,187,0.0,2.0,86,0.00,,,0.00,0.0,meteohub,2013-07-29 01:22:00,
2013-07-28 21:28:00,77.4,73.2,30.01,South,186,0.0,2.0,87,0.00,,,0.00,0.0,meteohub,2013-07-29 01:28:00,
2013-07-28 21:34:00,77.2,73.0,30.01,South,186,0.0,1.0,87,0.00,,,0.00,0.0,meteohub,2013-07-29 01:34:00,
2013-07-28 21:40:00,77.0,73.2,30.01,South,186,0.0,1.0,88,0.00,,,0.00,0.0,meteohub,2013-07-29 01:40:00,
2013-07-28 21:46:00,76.8,73.0,30.01,SE,138,0.0,1.0,88,0.00,,,0.00,0.0,meteohub,2013-07-29 01:46:00,
2013-07-28 21:52:00,76.6,72.9,30.01,South,173,0.0,1.0,88,0.00,,,0.00,0.0,meteohub,2013-07-29 01:52:00,
2013-07-28 21:57:00,76.6,73.2,30.01,South,185,0.0,1.0,89,0.00,,,0.00,0.0,meteohub,2013-07-29 01:57:00,
2013-07-28 22:02:00,76.5,73.0,30.02,South,184,0.0,1.0,89,0.00,,,0.00,0.0,meteohub,2013-07-29 02:02:00,
2013-07-28 22:09:00,76.5,73.0,30.02,WSW,244,0.0,1.0,89,0.00,,,0.00,0.0,meteohub,2013-07-29 02:09:00,
2013-07-28 22:15:00,76.3,72.9,30.02,SE,142,1.0,2.0,89,0.00,,,0.00,0.0,meteohub,2013-07-29 02:15:00,
2013-07-28 22:21:00,76.3,72.9,30.02,South,179,0.0,2.0,89,0.00,,,0.00,0.0,meteohub,2013-07-29 02:21:00,
2013-07-28 22:27:00,76.3,72.9,30.02,SSE,150,0.0,2.0,89,0.00,,,0.00,0.0,meteohub,2013-07-29 02:27:00,
2013-07-28 22:32:00,76.3,72.9,30.03,SSW,206,0.0,3.0,89,0.00,,,0.00,0.0,meteohub,2013-07-29 02:32:00,
2013-07-28 22:37:00,76.1,72.7,30.03,SSW,211,0.0,3.0,89,0.00,,,0.00,0.0,meteohub,2013-07-29 02:37:00,
2013-07-28 22:43:00,76.1,72.7,30.03,SSW,211,0.0,3.0,89,0.00,,,0.00,0.0,meteohub,2013-07-29 02:43:00,
2013-07-28 22:48:00,76.1,72.7,30.03,NW,304,0.0,3.0,89,0.00,,,0.00,0.0,meteohub,2013-07-29 02:48:00,
2013-07-28 22:57:00,75.7,72.9,30.03,NW,304,0.0,3.0,91,0.00,,,0.00,0.0,meteohub,2013-07-29 02:57:00,
2013-07-28 23:02:00,75.6,72.7,30.03,South,187,2.0,3.0,91,0.00,,,0.00,0.0,meteohub,2013-07-29 03:02:00,
2013-07-28 23:08:00,75.4,72.5,30.03,NW,324,0.0,3.0,91,0.00,,,0.00,0.0,meteohub,2013-07-29 03:08:00,
2013-07-28 23:14:00,75.4,72.5,30.03,NW,324,0.0,3.0,91,0.00,,,0.00,0.0,meteohub,2013-07-29 03:14:00,
2013-07-28 23:22:00,75.6,72.7,30.03,ESE,123,0.0,2.0,91,0.00,,,0.00,0.0,meteohub,2013-07-29 03:22:00,
2013-07-28 23:27:00,75.6,72.7,30.03,SSE,163,0.0,2.0,91,0.00,,,0.00,0.0,meteohub,2013-07-29 03:27:00,
2013-07-28 23:33:00,75.6,72.7,30.03,South,170,0.0,2.0,91,0.00,,,0.00,0.0,meteohub,2013-07-29 03:33:00,
2013-07-28 23:40:00,75.4,72.5,30.03,South,170,0.0,2.0,91,0.00,,,0.00,0.0,meteohub,2013-07-29 03:40:00,
2013-07-28 23:46:00,75.0,72.5,30.03,South,170,0.0,2.0,92,0.00,,,0.00,0.0,meteohub,2013-07-29 03:46:00,
2013-07-28 23:52:00,74.8,72.7,30.03,South,170,0.0,0.0,93,0.00,,,0.00,0.0,meteohub,2013-07-29 03:52:00,
2013-07-28 23:57:00,74.8,72.3,30.03,South,170,0.0,0.0,92,0.00,,,0.00,0.0,meteohub,2013-07-29 03:57:00,